Location: Unspecified
(0.0000°N, 0.0000°E)
Time: 21:34:55
(UTC+00:00)

Vanguard 1 Rocket - Pass Details

Date: 21 January 2020
Orbit: 650 x 4226 km, 34.3° (Epoch: 23 February)

Event Time Altitude Azimuth Distance (km) Brightness Sun altitude
Rises 19:39:37 0° 297° (WNW) 8,350 12.9 -20.7°
Reaches altitude 10° 19:45:32 10° 294° (WNW) 7,417 12.6 -22.1°
Maximum altitude 20:10:43 57° 220° (SW) 3,986 10.7 -27.9°
Drops below altitude 10° 20:27:04 10° 144° (SE) 5,060 11.0 -31.7°
Sets 20:30:17 0° 139° (SE) 5,680 11.3 -32.4°
